Regional Weather Roundup
Issued by NWS

Home | Current Version | Previous Version | Graphics & Text | Print | Product List | Glossary Off
Versions: 1 2 3 4 5 6 7 8 9 10 11 12 13 14 15 16 17 18 19 20 21 22 23 24 25 26 27 28 29 30 31 32 33 34 35 36 37 38 39 40 41 42 43 44 45 46 47 48 49 50

000
ASUS43 KDMX 231708
RWRIA

WEATHER ROUNDUP FOR IOWA
NATIONAL WEATHER SERVICE DES MOINES IA
1200 PM CDT MON MAY 23 2016

NOTE: "FAIR" INDICATES FEW OR NO CLOUDS BELOW 12,000 FEET WITH NO
SIGNIFICANT WEATHER AND/OR OBSTRUCTIONS TO VISIBILITY.

* - THESE STATIONS ARE NOT NWS STATIONS...THUS NOT UNDER NWS
QUALITY CONTROL.  THEY ALSO DO NOT REPORT WEATHER SUCH
AS PRECIPITATION OR FOG.

IAZ001>003-012>014-020>022-031>034-043>046-231800-
   NORTHWEST IOWA

CITY           SKY/WX    TMP DP  RH WIND       PRES   REMARKS
CARROLL *      CLOUDY    68  64  88 SE14G28   29.82S
CHEROKEE *     CLOUDY    72  66  83 S16       29.79R
DENISON *      CLOUDY    75  64  69 S10G20    29.79S
LE MARS *      SUNNY     72  64  78 S20G25    29.76S
ORANGE CITY *  PTSUNNY   70  63  78 S10G18    29.75F
SHELDON *      MOSUNNY   73  64  73 S17G25    29.76R
SIOUX CITY     CLOUDY    74  66  76 S16G22    29.77R
SPENCER        PTSUNNY   75  63  66 SE21G26   29.76F
STORM LAKE *   PTSUNNY   73  63  68 S25       29.79F
$$

IAZ055>058-069>071-079>083-090>094-231800-
   SOUTHWEST IOWA

CITY           SKY/WX    TMP DP  RH WIND       PRES   REMARKS
ATLANTIC *     PTSUNNY   77  63  61 S16G25    29.83R
AUDUBON *      MOSUNNY   75  64  69 S14G21    29.84R
CLARINDA *       N/A     73  61  64 MISG      29.88R
COUNCIL BLFS * CLOUDY    72  64  78 S9        29.84R
CRESTON *      PTSUNNY   70  61  73 S24       29.89R
HARLAN  *        N/A    N/A N/A N/A MISG        N/A
LAMONI         CLOUDY    72  59  63 S16       29.91
RED OAK *      MOSUNNY   77  64  65 S16G23    29.84R
SHENANDOAH *   MOSUNNY   79  64  61 S15G21    29.84S HX  81
$$

IAZ047>049-059>061-072>074-084-231800-
   CENTRAL IOWA

CITY           SKY/WX    TMP DP  RH WIND       PRES   REMARKS
AMES           PTSUNNY   77  62  59 S13G24    29.86S
ANKENY *       CLOUDY    75  61  60 S16G22    29.87S
BOONE *        CLOUDY    77  61  57 SW16G22   29.84S
CHARITON *     MOSUNNY   77  59  53 S15       29.91R
DES MOINES     CLOUDY    73  58  59 S15       29.88S
GRINNELL*      CLOUDY    79  55  44 S14G24    29.90F
KNOXVILLE *    CLOUDY    77  59  53 S15       29.88F
MARSHALLTOWN   CLOUDY    78  56  46 S22G32    29.87F
NEWTON *       PTSUNNY   79  57  47 S20G26    29.88F HX  80
PERRY *        CLOUDY    77  59  53 S17G23    29.84S
$$

IAZ004>006-015-016-023>025-035-036-231800-
   NORTH CENTRAL IOWA

CITY           SKY/WX    TMP DP  RH WIND       PRES   REMARKS
ALGONA *       MOSUNNY   72  59  64 S20G31    29.79S
ESTHERVILLE    CLOUDY    74  61  63 SE23G30   29.76S
FORT DODGE *   CLOUDY    63  55  77 S12       29.85F THUNDER
MASON CITY     CLOUDY    72  58  61 S18       29.85
FOREST CITY *  SUNNY     73  57  56 S20G28    29.82F
WEBSTER CITY * CLOUDY    72  57  60 SW12      29.84S
IOWA FALLS *   CLOUDY    75  57  53 S13G22    29.88S
$$

IAZ007>011-017>019-026>030-037>042-050>054-066-231800-
   NORTHEAST IOWA

CITY           SKY/WX    TMP DP  RH WIND       PRES   REMARKS
CEDAR RAPIDS   MOSUNNY   79  53  40 S18G24    29.92F
CHARLES CITY * CLOUDY    79  55  44 S17G28    29.88S
CLINTON *      SUNNY     81  49  32 S14G24    29.98S HX  80
DECORAH *      SUNNY     79  50  36 S14G22    29.89F
DUBUQUE        SUNNY     78  48  34 SW18      29.96F
MONTICELLO *   SUNNY     81  45  28 S18G31    29.94F
OELWEIN *      SUNNY     79  52  38 S22G28    29.91F
WATERLOO       PTSUNNY   81  55  40 S17G25    29.87F HX  81
$$

IAZ064-065-067-068-078-231800-
   EAST CENTRAL IOWA

CITY           SKY/WX    TMP DP  RH WIND       PRES   REMARKS
DAVENPORT      SUNNY     82  45  27 S14G21    29.97F HX  80
IOWA CITY      CLOUDY    80  51  36 S15       29.94F HX  80
MT. PLEASANT * SUNNY     82  48  30 S14       29.94F HX  81
MUSCATINE *    SUNNY     81  50  34 S14G20    29.95F HX  80
QUAD CITIES    SUNNY     82  46  28 S13       29.95F HX  80
$$

IAZ062-063-075>077-085>089-095>099-231800-
   SOUTHEAST IOWA

CITY           SKY/WX    TMP DP  RH WIND       PRES   REMARKS
BURLINGTON     MOSUNNY   79  50  36 S13       29.95
FAIRFIELD *      N/A    N/A N/A N/A MISG        N/A
FORT MADISON * SUNNY     79  52  38 S10       29.96F
KEOKUK *       SUNNY     79  52  38 SE12      29.94F
OSKALOOSA *      N/A     81  54  39 S17       29.92S HX  80
OTTUMWA        SUNNY     78  57  48 S16       29.91F
WASHINGTON *   SUNNY     81  50  34 S17G24    29.94F HX  80
$$

ABBREVIATIONS USED IN REMARKS
   TC - TEMPERATURES IN CELSIUS
  WCI - WIND CHILL INDEX
   HX - HEAT INDEX
  VSB - VISIBILITY
$$




USA.gov is the U.S. government's official web portal to all federal, state and local government web resources and services.